Wetterdaten: Donnerstag, 15.10.2015
Datum Zeit Temperatur Luftfeuchte Luftdruck Regen Wind Richtung Richtung Sonnenschein ET UV Solar Taupunkt Windchill Windben
15.10.2015 00:00 3,2 C 78 % 1018,6 hPa 0,0 l/m 0,4 km/h (0 Bft) O-NO 57 0 min 0,000 mm 0,0 UV-I 0 W/m -0,3 C 3,2 C 3,2 km/h (1 Bft)
15.10.2015 00:05 3,2 C 78 % 1018,6 hPa 0,0 l/m 1,1 km/h (1 Bft) O-NO 65 0 min 0,000 mm 0,0 UV-I 0 W/m -0,3 C 3,2 C 6,4 km/h (2 Bft)
15.10.2015 00:10 3,2 C 78 % 1018,6 hPa 0,0 l/m 0,5 km/h (0 Bft) O-NO 65 0 min 0,000 mm 0,0 UV-I 0 W/m -0,3 C 3,2 C 8,0 km/h (2 Bft)
15.10.2015 00:15 3,2 C 78 % 1018,6 hPa 0,0 l/m 1,5 km/h (1 Bft) O-SO 109 0 min 0,000 mm 0,0 UV-I 0 W/m -0,3 C 3,2 C 11,3 km/h (2 Bft)
15.10.2015 00:20 3,2 C 78 % 1018,7 hPa 0,0 l/m 1,3 km/h (1 Bft) O-NO 74 0 min 0,000 mm 0,0 UV-I 0 W/m -0,3 C 3,2 C 8,0 km/h (2 Bft)
15.10.2015 00:25 3,2 C 78 % 1018,7 hPa 0,0 l/m 2,8 km/h (1 Bft) NO 48 0 min 0,000 mm 0,0 UV-I 0 W/m -0,3 C 3,2 C 11,3 km/h (2 Bft)
15.10.2015 00:30 3,2 C 78 % 1018,7 hPa 0,0 l/m 2,5 km/h (1 Bft) O-NO 66 0 min 0,000 mm 0,0 UV-I 0 W/m -0,3 C 3,2 C 11,3 km/h (2 Bft)
15.10.2015 00:35 3,2 C 78 % 1018,8 hPa 0,0 l/m 0,5 km/h (0 Bft) O-NO 65 0 min 0,000 mm 0,0 UV-I 0 W/m -0,3 C 3,2 C 4,8 km/h (1 Bft)
15.10.2015 00:40 3,2 C 78 % 1018,7 hPa 0,0 l/m 1,7 km/h (1 Bft) NO 51 0 min 0,000 mm 0,0 UV-I 0 W/m -0,3 C 3,2 C 9,7 km/h (2 Bft)
15.10.2015 00:45 3,2 C 78 % 1018,7 hPa 0,0 l/m 1,1 km/h (1 Bft) O-NO 69 0 min 0,000 mm 0,0 UV-I 0 W/m -0,3 C 3,2 C 8,0 km/h (2 Bft)
15.10.2015 00:50 3,2 C 78 % 1018,8 hPa 0,0 l/m 0,6 km/h (0 Bft) O-NO 60 0 min 0,000 mm 0,0 UV-I 0 W/m -0,3 C 3,2 C 6,4 km/h (2 Bft)
15.10.2015 00:55 3,2 C 78 % 1018,7 hPa 0,0 l/m 1,2 km/h (1 Bft) NO 53 0 min 0,000 mm 0,0 UV-I 0 W/m -0,3 C 3,2 C 11,3 km/h (2 Bft)
15.10.2015 01:00 3,2 C 78 % 1018,6 hPa 0,0 l/m 2,3 km/h (1 Bft) NO 51 0 min 0,025 mm 0,0 UV-I 0 W/m -0,3 C 3,2 C 12,9 km/h (3 Bft)
15.10.2015 01:05 3,2 C 78 % 1018,7 hPa 0,0 l/m 1,6 km/h (1 Bft) NO 42 0 min 0,000 mm 0,0 UV-I 0 W/m -0,3 C 3,2 C 8,0 km/h (2 Bft)
15.10.2015 01:10 3,2 C 78 % 1018,6 hPa 0,0 l/m 0,3 km/h (0 Bft) O 82 0 min 0,000 mm 0,0 UV-I 0 W/m -0,3 C 3,2 C 3,2 km/h (1 Bft)
15.10.2015 01:15 3,2 C 78 % 1018,6 hPa 0,0 l/m 0,5 km/h (0 Bft) NO 55 0 min 0,000 mm 0,0 UV-I 0 W/m -0,3 C 3,2 C 6,4 km/h (2 Bft)
15.10.2015 01:20 3,2 C 78 % 1018,6 hPa 0,0 l/m 0,0 km/h (0 Bft) NO 55 0 min 0,000 mm 0,0 UV-I 0 W/m -0,3 C 3,2 C 0,0 km/h (0 Bft)
15.10.2015 01:25 3,2 C 78 % 1018,6 hPa 0,0 l/m 0,0 km/h (0 Bft) O 85 0 min 0,000 mm 0,0 UV-I 0 W/m -0,3 C 3,2 C 3,2 km/h (1 Bft)
15.10.2015 01:30 3,2 C 78 % 1018,6 hPa 0,0 l/m 1,8 km/h (1 Bft) NO 52 0 min 0,000 mm 0,0 UV-I 0 W/m -0,3 C 3,2 C 12,9 km/h (3 Bft)
15.10.2015 01:35 3,2 C 78 % 1018,5 hPa 0,0 l/m 0,1 km/h (0 Bft) O-NO 76 0 min 0,000 mm 0,0 UV-I 0 W/m -0,3 C 3,2 C 1,6 km/h (1 Bft)
15.10.2015 01:40 3,2 C 78 % 1018,4 hPa 0,0 l/m 0,3 km/h (0 Bft) NO 34 0 min 0,000 mm 0,0 UV-I 0 W/m -0,3 C 3,2 C 4,8 km/h (1 Bft)
15.10.2015 01:45 3,2 C 78 % 1018,3 hPa 0,0 l/m 0,2 km/h (0 Bft) O-NO 68 0 min 0,000 mm 0,0 UV-I 0 W/m -0,3 C 3,2 C 3,2 km/h (1 Bft)
15.10.2015 01:50 3,2 C 78 % 1018,3 hPa 0,0 l/m 0,0 km/h (0 Bft) O-NO 68 0 min 0,000 mm 0,0 UV-I 0 W/m -0,3 C 3,2 C 0,0 km/h (0 Bft)
15.10.2015 01:55 3,2 C 78 % 1018,2 hPa 0,0 l/m 0,0 km/h (0 Bft) NO 38 0 min 0,000 mm 0,0 UV-I 0 W/m -0,3 C 3,2 C 1,6 km/h (1 Bft)
15.10.2015 02:00 3,1 C 78 % 1018,3 hPa 0,0 l/m 0,5 km/h (0 Bft) O-NO 57 0 min 0,000 mm 0,0 UV-I 0 W/m -0,4 C 3,1 C 9,7 km/h (2 Bft)
15.10.2015 02:05 3,1 C 78 % 1018,3 hPa 0,0 l/m 1,1 km/h (1 Bft) N-NO 22 0 min 0,000 mm 0,0 UV-I 0 W/m -0,4 C 3,1 C 11,3 km/h (2 Bft)
15.10.2015 02:10 3,1 C 78 % 1018,3 hPa 0,0 l/m 0,0 km/h (0 Bft) NO 47 0 min 0,000 mm 0,0 UV-I 0 W/m -0,4 C 3,1 C 1,6 km/h (1 Bft)
15.10.2015 02:15 3,0 C 78 % 1018,3 hPa 0,0 l/m 0,3 km/h (0 Bft) NO 55 0 min 0,000 mm 0,0 UV-I 0 W/m -0,5 C 3,0 C 4,8 km/h (1 Bft)
15.10.2015 02:20 3,0 C 78 % 1018,3 hPa 0,0 l/m 1,9 km/h (1 Bft) O 83 0 min 0,000 mm 0,0 UV-I 0 W/m -0,5 C 3,0 C 8,0 km/h (2 Bft)
15.10.2015 02:25 3,0 C 78 % 1018,2 hPa 0,0 l/m 1,1 km/h (1 Bft) O-NO 64 0 min 0,000 mm 0,0 UV-I 0 W/m -0,5 C 3,0 C 8,0 km/h (2 Bft)
15.10.2015 02:30 3,0 C 78 % 1018,3 hPa 0,0 l/m 0,5 km/h (0 Bft) O-NO 58 0 min 0,000 mm 0,0 UV-I 0 W/m -0,5 C 3,0 C 6,4 km/h (2 Bft)
15.10.2015 02:35 3,1 C 78 % 1018,2 hPa 0,0 l/m 1,3 km/h (1 Bft) O-NO 74 0 min 0,000 mm 0,0 UV-I 0 W/m -0,4 C 3,1 C 6,4 km/h (2 Bft)
15.10.2015 02:40 3,0 C 78 % 1018,2 hPa 0,0 l/m 0,1 km/h (0 Bft) O-NO 68 0 min 0,000 mm 0,0 UV-I 0 W/m -0,5 C 3,0 C 1,6 km/h (1 Bft)
15.10.2015 02:45 2,9 C 78 % 1018,3 hPa 0,0 l/m 1,0 km/h (0 Bft) NO 54 0 min 0,000 mm 0,0 UV-I 0 W/m -0,5 C 2,9 C 4,8 km/h (1 Bft)
15.10.2015 02:50 2,9 C 78 % 1018,2 hPa 0,0 l/m 0,0 km/h (0 Bft) NO 54 0 min 0,000 mm 0,0 UV-I 0 W/m -0,5 C 2,9 C 1,6 km/h (1 Bft)
15.10.2015 02:55 2,8 C 79 % 1018,2 hPa 0,0 l/m 0,0 km/h (0 Bft) NO 51 0 min 0,000 mm 0,0 UV-I 0 W/m -0,5 C 2,8 C 1,6 km/h (1 Bft)
15.10.2015 03:00 2,8 C 78 % 1018,0 hPa 0,0 l/m 1,0 km/h (0 Bft) NO 35 0 min 0,000 mm 0,0 UV-I 0 W/m -0,6 C 2,8 C 8,0 km/h (2 Bft)
15.10.2015 03:05 2,8 C 78 % 1018,0 hPa 0,0 l/m 0,4 km/h (0 Bft) NO 47 0 min 0,000 mm 0,0 UV-I 0 W/m -0,6 C 2,8 C 4,8 km/h (1 Bft)
15.10.2015 03:10 2,8 C 78 % 1018,0 hPa 0,0 l/m 0,0 km/h (0 Bft) O 87 0 min 0,000 mm 0,0 UV-I 0 W/m -0,6 C 2,8 C 0,0 km/h (0 Bft)
15.10.2015 03:15 2,8 C 78 % 1018,0 hPa 0,0 l/m 0,0 km/h (0 Bft) O 87 0 min 0,000 mm 0,0 UV-I 0 W/m -0,6 C 2,8 C 0,0 km/h (0 Bft)
15.10.2015 03:20 2,8 C 78 % 1018,0 hPa 0,0 l/m 0,0 km/h (0 Bft) O 87 0 min 0,000 mm 0,0 UV-I 0 W/m -0,6 C 2,8 C 0,0 km/h (0 Bft)
15.10.2015 03:25 2,8 C 78 % 1017,9 hPa 0,0 l/m 0,0 km/h (0 Bft) O 87 0 min 0,000 mm 0,0 UV-I 0 W/m -0,6 C 2,8 C 0,0 km/h (0 Bft)
15.10.2015 03:30 2,8 C 78 % 1017,7 hPa 0,0 l/m 0,0 km/h (0 Bft) NW 323 0 min 0,000 mm 0,0 UV-I 0 W/m -0,6 C 2,8 C 0,0 km/h (0 Bft)
15.10.2015 03:35 2,8 C 78 % 1017,5 hPa 0,0 l/m 0,0 km/h (0 Bft) NW 323 0 min 0,000 mm 0,0 UV-I 0 W/m -0,6 C 2,8 C 0,0 km/h (0 Bft)
15.10.2015 03:40 2,8 C 78 % 1017,5 hPa 0,0 l/m 0,0 km/h (0 Bft) SW 234 0 min 0,000 mm 0,0 UV-I 0 W/m -0,6 C 2,8 C 0,0 km/h (0 Bft)
15.10.2015 03:45 2,8 C 78 % 1017,6 hPa 0,0 l/m 0,0 km/h (0 Bft) SW 234 0 min 0,000 mm 0,0 UV-I 0 W/m -0,6 C 2,8 C 0,0 km/h (0 Bft)
15.10.2015 03:50 2,8 C 78 % 1017,5 hPa 0,0 l/m 0,0 km/h (0 Bft) SW 234 0 min 0,000 mm 0,0 UV-I 0 W/m -0,6 C 2,8 C 0,0 km/h (0 Bft)
15.10.2015 03:55 2,7 C 78 % 1017,4 hPa 0,0 l/m 0,0 km/h (0 Bft) SW 234 0 min 0,000 mm 0,0 UV-I 0 W/m -0,7 C 2,7 C 0,0 km/h (0 Bft)
15.10.2015 04:00 2,7 C 78 % 1017,4 hPa 0,0 l/m 0,0 km/h (0 Bft) SW 234 0 min 0,000 mm 0,0 UV-I 0 W/m -0,7 C 2,7 C 0,0 km/h (0 Bft)
15.10.2015 04:05 2,6 C 78 % 1017,4 hPa 0,0 l/m 0,0 km/h (0 Bft) SW 234 0 min 0,000 mm 0,0 UV-I 0 W/m -0,8 C 2,6 C 0,0 km/h (0 Bft)
15.10.2015 04:10 2,6 C 79 % 1017,5 hPa 0,0 l/m 0,0 km/h (0 Bft) SW 234 0 min 0,000 mm 0,0 UV-I 0 W/m -0,7 C 2,6 C 0,0 km/h (0 Bft)
15.10.2015 04:15 2,6 C 79 % 1017,5 hPa 0,0 l/m 0,0 km/h (0 Bft) SW 234 0 min 0,000 mm 0,0 UV-I 0 W/m -0,7 C 2,6 C 0,0 km/h (0 Bft)
15.10.2015 04:20 2,6 C 78 % 1017,4 hPa 0,0 l/m 0,0 km/h (0 Bft) SW 234 0 min 0,000 mm 0,0 UV-I 0 W/m -0,8 C 2,6 C 0,0 km/h (0 Bft)
15.10.2015 04:25 2,6 C 78 % 1017,5 hPa 0,0 l/m 0,0 km/h (0 Bft) SW 234 0 min 0,000 mm 0,0 UV-I 0 W/m -0,8 C 2,6 C 0,0 km/h (0 Bft)
15.10.2015 04:30 2,6 C 78 % 1017,4 hPa 0,0 l/m 0,0 km/h (0 Bft) SW 234 0 min 0,000 mm 0,0 UV-I 0 W/m -0,8 C 2,6 C 0,0 km/h (0 Bft)
15.10.2015 04:35 2,6 C 78 % 1017,4 hPa 0,0 l/m 0,0 km/h (0 Bft) SW 234 0 min 0,000 mm 0,0 UV-I 0 W/m -0,8 C 2,6 C 0,0 km/h (0 Bft)
15.10.2015 04:40 2,7 C 78 % 1017,5 hPa 0,0 l/m 0,0 km/h (0 Bft) SW 234 0 min 0,000 mm 0,0 UV-I 0 W/m -0,7 C 2,7 C 0,0 km/h (0 Bft)
15.10.2015 04:45 2,7 C 78 % 1017,4 hPa 0,0 l/m 0,0 km/h (0 Bft) SW 234 0 min 0,000 mm 0,0 UV-I 0 W/m -0,7 C 2,7 C 0,0 km/h (0 Bft)
15.10.2015 04:50 2,8 C 78 % 1017,3 hPa 0,0 l/m 0,0 km/h (0 Bft) SW 234 0 min 0,000 mm 0,0 UV-I 0 W/m -0,6 C 2,8 C 0,0 km/h (0 Bft)
15.10.2015 04:55 2,8 C 78 % 1017,5 hPa 0,0 l/m 0,0 km/h (0 Bft) SW 227 0 min 0,000 mm 0,0 UV-I 0 W/m -0,6 C 2,8 C 0,0 km/h (0 Bft)
15.10.2015 05:00 2,9 C 78 % 1017,2 hPa 0,0 l/m 0,2 km/h (0 Bft) O-NO 64 0 min 0,000 mm 0,0 UV-I 0 W/m -0,5 C 2,9 C 3,2 km/h (1 Bft)
15.10.2015 05:05 2,9 C 78 % 1017,3 hPa 0,0 l/m 0,0 km/h (0 Bft) O-NO 64 0 min 0,000 mm 0,0 UV-I 0 W/m -0,5 C 2,9 C 1,6 km/h (1 Bft)
15.10.2015 05:10 2,9 C 78 % 1017,4 hPa 0,0 l/m 0,0 km/h (0 Bft) O-NO 64 0 min 0,000 mm 0,0 UV-I 0 W/m -0,5 C 2,9 C 0,0 km/h (0 Bft)
15.10.2015 05:15 3,0 C 78 % 1017,3 hPa 0,0 l/m 0,1 km/h (0 Bft) O-NO 69 0 min 0,000 mm 0,0 UV-I 0 W/m -0,5 C 3,0 C 3,2 km/h (1 Bft)
15.10.2015 05:20 3,1 C 78 % 1017,4 hPa 0,0 l/m 0,0 km/h (0 Bft) O-NO 68 0 min 0,000 mm 0,0 UV-I 0 W/m -0,4 C 3,1 C 1,6 km/h (1 Bft)
15.10.2015 05:25 3,1 C 78 % 1017,3 hPa 0,0 l/m 0,9 km/h (0 Bft) O-NO 70 0 min 0,000 mm 0,0 UV-I 0 W/m -0,4 C 3,1 C 6,4 km/h (2 Bft)
15.10.2015 05:30 3,1 C 78 % 1017,3 hPa 0,0 l/m 1,5 km/h (1 Bft) O-SO 115 0 min 0,000 mm 0,0 UV-I 0 W/m -0,4 C 3,1 C 9,7 km/h (2 Bft)
15.10.2015 05:35 3,1 C 78 % 1017,3 hPa 0,0 l/m 1,3 km/h (1 Bft) NO 49 0 min 0,000 mm 0,0 UV-I 0 W/m -0,4 C 3,1 C 11,3 km/h (2 Bft)
15.10.2015 05:40 3,1 C 78 % 1017,3 hPa 0,0 l/m 0,1 km/h (0 Bft) O-NO 69 0 min 0,000 mm 0,0 UV-I 0 W/m -0,4 C 3,1 C 1,6 km/h (1 Bft)
15.10.2015 05:45 3,1 C 78 % 1017,4 hPa 0,0 l/m 0,0 km/h (0 Bft) O-SO 110 0 min 0,000 mm 0,0 UV-I 0 W/m -0,4 C 3,1 C 0,0 km/h (0 Bft)
15.10.2015 05:50 3,2 C 78 % 1017,4 hPa 0,0 l/m 0,0 km/h (0 Bft) NO 42 0 min 0,000 mm 0,0 UV-I 0 W/m -0,3 C 3,2 C 1,6 km/h (1 Bft)
15.10.2015 05:55 3,1 C 78 % 1017,3 hPa 0,0 l/m 0,3 km/h (0 Bft) O-NO 63 0 min 0,000 mm 0,0 UV-I 0 W/m -0,4 C 3,1 C 4,8 km/h (1 Bft)
15.10.2015 06:00 3,1 C 79 % 1017,2 hPa 0,0 l/m 0,2 km/h (0 Bft) O-NO 59 0 min 0,000 mm 0,0 UV-I 0 W/m -0,2 C 3,1 C 4,8 km/h (1 Bft)
15.10.2015 06:05 3,1 C 79 % 1017,1 hPa 0,0 l/m 0,6 km/h (0 Bft) O-NO 72 0 min 0,000 mm 0,0 UV-I 0 W/m -0,2 C 3,1 C 8,0 km/h (2 Bft)
15.10.2015 06:10 3,1 C 79 % 1017,1 hPa 0,0 l/m 0,2 km/h (0 Bft) O-NO 69 0 min 0,000 mm 0,0 UV-I 0 W/m -0,2 C 3,1 C 4,8 km/h (1 Bft)
15.10.2015 06:15 3,1 C 79 % 1017,1 hPa 0,0 l/m 0,0 km/h (0 Bft) N-NO 24 0 min 0,000 mm 0,0 UV-I 0 W/m -0,2 C 3,1 C 0,0 km/h (0 Bft)
15.10.2015 06:20 3,1 C 78 % 1017,0 hPa 0,0 l/m 0,0 km/h (0 Bft) N-NO 24 0 min 0,000 mm 0,0 UV-I 0 W/m -0,4 C 3,1 C 0,0 km/h (0 Bft)
15.10.2015 06:25 3,1 C 78 % 1017,0 hPa 0,0 l/m 0,3 km/h (0 Bft) W-NW 288 0 min 0,000 mm 0,0 UV-I 0 W/m -0,4 C 3,1 C 4,8 km/h (1 Bft)
15.10.2015 06:30 3,1 C 78 % 1017,1 hPa 0,0 l/m 0,0 km/h (0 Bft) W-NW 288 0 min 0,000 mm 0,0 UV-I 0 W/m -0,4 C 3,1 C 0,0 km/h (0 Bft)
15.10.2015 06:35 3,1 C 78 % 1017,1 hPa 0,0 l/m 0,4 km/h (0 Bft) O-NO 57 0 min 0,000 mm 0,0 UV-I 0 W/m -0,4 C 3,1 C 4,8 km/h (1 Bft)
15.10.2015 06:40 3,1 C 78 % 1017,1 hPa 0,0 l/m 0,0 km/h (0 Bft) O-SO 112 0 min 0,000 mm 0,0 UV-I 0 W/m -0,4 C 3,1 C 0,0 km/h (0 Bft)
15.10.2015 06:45 3,1 C 78 % 1017,2 hPa 0,0 l/m 0,0 km/h (0 Bft) O-SO 111 0 min 0,000 mm 0,0 UV-I 0 W/m -0,4 C 3,1 C 0,0 km/h (0 Bft)
15.10.2015 06:50 3,1 C 78 % 1017,1 hPa 0,0 l/m 0,0 km/h (0 Bft) O-NO 65 0 min 0,000 mm 0,0 UV-I 0 W/m -0,4 C 3,1 C 1,6 km/h (1 Bft)
15.10.2015 06:55 3,1 C 78 % 1017,1 hPa 0,0 l/m 0,0 km/h (0 Bft) O-NO 65 0 min 0,000 mm 0,0 UV-I 0 W/m -0,4 C 3,1 C 0,0 km/h (0 Bft)
15.10.2015 07:00 3,0 C 79 % 1017,0 hPa 0,0 l/m 0,3 km/h (0 Bft) NO 52 0 min 0,000 mm 0,0 UV-I 0 W/m -0,3 C 3,0 C 6,4 km/h (2 Bft)
15.10.2015 07:05 3,0 C 78 % 1017,0 hPa 0,2 l/m 0,0 km/h (0 Bft) NO 52 0 min 0,000 mm 0,0 UV-I 0 W/m -0,5 C 3,0 C 0,0 km/h (0 Bft)
15.10.2015 07:10 3,0 C 78 % 1016,9 hPa 0,0 l/m 0,0 km/h (0 Bft) NO 52 0 min 0,000 mm 0,0 UV-I 0 W/m -0,5 C 3,0 C 0,0 km/h (0 Bft)
15.10.2015 07:15 2,9 C 78 % 1016,9 hPa 0,2 l/m 0,0 km/h (0 Bft) O-SO 109 0 min 0,000 mm 0,0 UV-I 0 W/m -0,5 C 2,9 C 0,0 km/h (0 Bft)
15.10.2015 07:20 2,9 C 78 % 1016,8 hPa 0,0 l/m 0,0 km/h (0 Bft) O-SO 109 0 min 0,000 mm 0,0 UV-I 0 W/m -0,5 C 2,9 C 0,0 km/h (0 Bft)
15.10.2015 07:25 2,9 C 78 % 1016,9 hPa 0,2 l/m 0,0 km/h (0 Bft) O-SO 109 0 min 0,000 mm 0,0 UV-I 0 W/m -0,5 C 2,9 C 0,0 km/h (0 Bft)
15.10.2015 07:30 2,9 C 78 % 1016,8 hPa 0,0 l/m 0,0 km/h (0 Bft) O-SO 109 0 min 0,000 mm 0,0 UV-I 0 W/m -0,5 C 2,9 C 0,0 km/h (0 Bft)
15.10.2015 07:35 2,8 C 78 % 1016,8 hPa 0,2 l/m 0,0 km/h (0 Bft) O-SO 109 0 min 0,000 mm 0,0 UV-I 0 W/m -0,6 C 2,8 C 0,0 km/h (0 Bft)
15.10.2015 07:40 2,8 C 78 % 1016,8 hPa 0,0 l/m 0,0 km/h (0 Bft) O-SO 109 0 min 0,000 mm 0,0 UV-I 0 W/m -0,6 C 2,8 C 0,0 km/h (0 Bft)
15.10.2015 07:45 2,8 C 78 % 1016,6 hPa 0,2 l/m 0,0 km/h (0 Bft) O-SO 109 0 min 0,000 mm 0,0 UV-I 0 W/m -0,6 C 2,8 C 0,0 km/h (0 Bft)
15.10.2015 07:50 2,7 C 78 % 1016,6 hPa 0,2 l/m 0,0 km/h (0 Bft) SO 144 0 min 0,000 mm 0,0 UV-I 0 W/m -0,7 C 2,7 C 0,0 km/h (0 Bft)
15.10.2015 07:55 2,7 C 78 % 1016,6 hPa 0,0 l/m 0,0 km/h (0 Bft) SO 144 0 min 0,000 mm 0,0 UV-I 0 W/m -0,7 C 2,7 C 0,0 km/h (0 Bft)
15.10.2015 08:00 2,6 C 78 % 1016,6 hPa 0,0 l/m 0,0 km/h (0 Bft) SO 146 0 min 0,000 mm 0,0 UV-I 0 W/m -0,8 C 2,6 C 0,0 km/h (0 Bft)
15.10.2015 08:05 2,6 C 78 % 1016,6 hPa 0,2 l/m 0,0 km/h (0 Bft) S 183 0 min 0,000 mm 0,0 UV-I 0 W/m -0,8 C 2,6 C 0,0 km/h (0 Bft)
15.10.2015 08:10 2,4 C 78 % 1016,6 hPa 0,0 l/m 0,0 km/h (0 Bft) SW 220 0 min 0,000 mm 0,0 UV-I 0 W/m -1,0 C 2,4 C 0,0 km/h (0 Bft)
15.10.2015 08:15 2,3 C 78 % 1016,5 hPa 0,2 l/m 0,0 km/h (0 Bft) SW 220 0 min 0,000 mm 0,0 UV-I 0 W/m -1,1 C 2,3 C 0,0 km/h (0 Bft)
15.10.2015 08:20 2,3 C 78 % 1016,6 hPa 0,0 l/m 0,6 km/h (0 Bft) W-SW 248 0 min 0,000 mm 0,0 UV-I 0 W/m -1,1 C 2,3 C 3,2 km/h (1 Bft)
15.10.2015 08:25 2,1 C 78 % 1016,5 hPa 0,2 l/m 1,4 km/h (1 Bft) W 271 0 min 0,000 mm 0,0 UV-I 0 W/m -1,3 C 2,1 C 4,8 km/h (1 Bft)
15.10.2015 08:30 2,1 C 78 % 1016,5 hPa 0,2 l/m 0,1 km/h (0 Bft) W 271 0 min 0,000 mm 0,0 UV-I 0 W/m -1,3 C 2,1 C 1,6 km/h (1 Bft)
15.10.2015 08:35 2,0 C 78 % 1016,5 hPa 0,0 l/m 0,0 km/h (0 Bft) W 271 0 min 0,000 mm 0,0 UV-I 0 W/m -1,4 C 2,0 C 0,0 km/h (0 Bft)
15.10.2015 08:40 2,0 C 78 % 1016,5 hPa 0,2 l/m 0,0 km/h (0 Bft) W 271 0 min 0,000 mm 0,0 UV-I 2 W/m -1,4 C 2,0 C 0,0 km/h (0 Bft)
15.10.2015 08:45 1,9 C 79 % 1016,5 hPa 0,0 l/m 0,0 km/h (0 Bft) W 271 0 min 0,000 mm 0,0 UV-I 5 W/m -1,3 C 1,9 C 0,0 km/h (0 Bft)
15.10.2015 08:50 1,9 C 78 % 1016,5 hPa 0,2 l/m 0,1 km/h (0 Bft) W 271 0 min 0,000 mm 0,0 UV-I 6 W/m -1,5 C 1,9 C 1,6 km/h (1 Bft)
15.10.2015 08:55 1,8 C 78 % 1016,6 hPa 0,0 l/m 0,7 km/h (0 Bft) W 271 0 min 0,000 mm 0,0 UV-I 7 W/m -1,6 C 1,8 C 4,8 km/h (1 Bft)
15.10.2015 09:00 1,8 C 79 % 1016,6 hPa 0,2 l/m 0,1 km/h (0 Bft) W 271 0 min 0,000 mm 0,0 UV-I 7 W/m -1,4 C 1,8 C 1,6 km/h (1 Bft)
15.10.2015 09:05 1,8 C 79 % 1016,6 hPa 0,2 l/m 0,3 km/h (0 Bft) W 271 0 min 0,000 mm 0,0 UV-I 8 W/m -1,4 C 1,8 C 3,2 km/h (1 Bft)
15.10.2015 09:10 1,8 C 79 % 1016,7 hPa 0,0 l/m 1,3 km/h (1 Bft) W 271 0 min 0,000 mm 0,0 UV-I 5 W/m -1,4 C 1,8 C 4,8 km/h (1 Bft)
15.10.2015 09:15 1,8 C 79 % 1016,7 hPa 0,2 l/m 0,6 km/h (0 Bft) W 271 0 min 0,000 mm 0,0 UV-I 5 W/m -1,4 C 1,8 C 3,2 km/h (1 Bft)
15.10.2015 09:20 1,8 C 79 % 1016,8 hPa 0,2 l/m 0,3 km/h (0 Bft) W 271 0 min 0,000 mm 0,0 UV-I 7 W/m -1,4 C 1,8 C 4,8 km/h (1 Bft)
15.10.2015 09:25 1,8 C 79 % 1016,8 hPa 0,0 l/m 0,1 km/h (0 Bft) W 271 0 min 0,000 mm 0,0 UV-I 9 W/m -1,4 C 1,8 C 1,6 km/h (1 Bft)
15.10.2015 09:30 1,7 C 79 % 1016,8 hPa 0,2 l/m 0,1 km/h (0 Bft) W 271 0 min 0,000 mm 0,0 UV-I 11 W/m -1,5 C 1,7 C 1,6 km/h (1 Bft)
15.10.2015 09:35 1,8 C 79 % 1016,8 hPa 0,0 l/m 0,0 km/h (0 Bft) W 271 0 min 0,000 mm 0,0 UV-I 12 W/m -1,4 C 1,8 C 0,0 km/h (0 Bft)
15.10.2015 09:40 1,8 C 79 % 1016,8 hPa 0,2 l/m 0,0 km/h (0 Bft) W 271 0 min 0,000 mm 0,0 UV-I 17 W/m -1,4 C 1,8 C 0,0 km/h (0 Bft)
15.10.2015 09:45 1,8 C 79 % 1016,8 hPa 0,0 l/m 0,0 km/h (0 Bft) W 271 0 min 0,000 mm 0,0 UV-I 18 W/m -1,4 C 1,8 C 0,0 km/h (0 Bft)
15.10.2015 09:50 1,8 C 79 % 1016,8 hPa 0,2 l/m 0,1 km/h (0 Bft) W 271 0 min 0,000 mm 0,0 UV-I 21 W/m -1,4 C 1,8 C 3,2 km/h (1 Bft)
15.10.2015 09:55 1,7 C 79 % 1016,7 hPa 0,2 l/m 0,1 km/h (0 Bft) W 271 0 min 0,000 mm 0,0 UV-I 30 W/m -1,5 C 1,7 C 3,2 km/h (1 Bft)
15.10.2015 10:00 1,7 C 79 % 1016,7 hPa 0,0 l/m 0,0 km/h (0 Bft) W 271 0 min 0,000 mm 0,0 UV-I 40 W/m -1,5 C 1,7 C 1,6 km/h (1 Bft)
15.10.2015 10:05 1,7 C 79 % 1016,6 hPa 0,2 l/m 1,0 km/h (0 Bft) W 271 0 min 0,000 mm 0,0 UV-I 54 W/m -1,5 C 1,7 C 4,8 km/h (1 Bft)
15.10.2015 10:10 1,7 C 79 % 1016,5 hPa 0,2 l/m 0,8 km/h (0 Bft) W 270 0 min 0,000 mm 0,0 UV-I 56 W/m -1,5 C 1,7 C 6,4 km/h (2 Bft)
15.10.2015 10:15 1,8 C 79 % 1016,5 hPa 0,0 l/m 0,3 km/h (0 Bft) W 269 0 min 0,000 mm 0,0 UV-I 45 W/m -1,4 C 1,8 C 3,2 km/h (1 Bft)
15.10.2015 10:20 1,8 C 79 % 1016,5 hPa 0,0 l/m 0,4 km/h (0 Bft) W 269 0 min 0,000 mm 0,0 UV-I 30 W/m -1,4 C 1,8 C 3,2 km/h (1 Bft)
15.10.2015 10:25 1,8 C 79 % 1016,5 hPa 0,0 l/m 0,6 km/h (0 Bft) W 269 0 min 0,000 mm 0,0 UV-I 22 W/m -1,4 C 1,8 C 4,8 km/h (1 Bft)
15.10.2015 10:30 1,8 C 79 % 1016,5 hPa 0,2 l/m 2,6 km/h (1 Bft) W 269 0 min 0,000 mm 0,0 UV-I 18 W/m -1,4 C 1,8 C 3,2 km/h (1 Bft)
15.10.2015 10:35 1,8 C 79 % 1016,4 hPa 0,0 l/m 1,7 km/h (1 Bft) W 269 0 min 0,000 mm 0,0 UV-I 18 W/m -1,4 C 1,8 C 4,8 km/h (1 Bft)
15.10.2015 10:40 1,8 C 79 % 1016,4 hPa 0,2 l/m 0,4 km/h (0 Bft) W 269 0 min 0,000 mm 0,0 UV-I 23 W/m -1,4 C 1,8 C 4,8 km/h (1 Bft)
15.10.2015 10:45 1,9 C 79 % 1016,3 hPa 0,0 l/m 1,0 km/h (0 Bft) W 269 0 min 0,000 mm 0,0 UV-I 26 W/m -1,3 C 1,9 C 4,8 km/h (1 Bft)
15.10.2015 10:50 1,9 C 79 % 1016,2 hPa 0,0 l/m 1,7 km/h (1 Bft) W 278 0 min 0,000 mm 0,0 UV-I 29 W/m -1,3 C 1,9 C 6,4 km/h (2 Bft)
15.10.2015 10:55 2,0 C 79 % 1016,3 hPa 0,0 l/m 1,2 km/h (1 Bft) W 279 0 min 0,000 mm 0,0 UV-I 26 W/m -1,2 C 2,0 C 4,8 km/h (1 Bft)
15.10.2015 11:00 2,1 C 80 % 1016,1 hPa 0,2 l/m 1,3 km/h (1 Bft) W 271 0 min 0,026 mm 0,0 UV-I 25 W/m -1,0 C 2,1 C 6,4 km/h (2 Bft)
15.10.2015 11:05 2,1 C 80 % 1016,1 hPa 0,0 l/m 3,1 km/h (1 Bft) W-SW 255 0 min 0,000 mm 0,0 UV-I 32 W/m -1,0 C 2,1 C 9,7 km/h (2 Bft)
15.10.2015 11:10 2,2 C 79 % 1016,1 hPa 0,0 l/m 2,8 km/h (1 Bft) W 260 0 min 0,000 mm 0,0 UV-I 35 W/m -1,1 C 2,2 C 8,0 km/h (2 Bft)
15.10.2015 11:15 2,2 C 79 % 1016,1 hPa 0,2 l/m 1,6 km/h (1 Bft) W-NW 286 0 min 0,000 mm 0,0 UV-I 37 W/m -1,1 C 2,2 C 8,0 km/h (2 Bft)
15.10.2015 11:20 2,3 C 79 % 1016,0 hPa 0,0 l/m 2,9 km/h (1 Bft) W 259 0 min 0,000 mm 0,0 UV-I 34 W/m -1,0 C 2,3 C 8,0 km/h (2 Bft)
15.10.2015 11:25 2,3 C 80 % 1016,0 hPa 0,2 l/m 3,2 km/h (1 Bft) W 273 0 min 0,000 mm 0,0 UV-I 31 W/m -0,8 C 2,3 C 8,0 km/h (2 Bft)
15.10.2015 11:30 2,4 C 80 % 1015,9 hPa 0,0 l/m 2,9 km/h (1 Bft) W-NW 282 0 min 0,000 mm 0,0 UV-I 26 W/m -0,7 C 2,4 C 8,0 km/h (2 Bft)
15.10.2015 11:35 2,4 C 80 % 1015,9 hPa 0,0 l/m 2,5 km/h (1 Bft) W 274 0 min 0,000 mm 0,0 UV-I 27 W/m -0,7 C 2,4 C 8,0 km/h (2 Bft)
15.10.2015 11:40 2,4 C 80 % 1015,9 hPa 0,0 l/m 3,0 km/h (1 Bft) W 277 0 min 0,000 mm 0,0 UV-I 27 W/m -0,7 C 2,4 C 8,0 km/h (2 Bft)
15.10.2015 11:45 2,5 C 80 % 1015,8 hPa 0,2 l/m 1,9 km/h (1 Bft) W-NW 284 0 min 0,000 mm 0,0 UV-I 35 W/m -0,6 C 2,5 C 8,0 km/h (2 Bft)
15.10.2015 11:50 2,6 C 80 % 1015,8 hPa 0,0 l/m 2,9 km/h (1 Bft) W-SW 254 0 min 0,000 mm 0,0 UV-I 37 W/m -0,5 C 2,6 C 6,4 km/h (2 Bft)
15.10.2015 11:55 2,7 C 80 % 1015,8 hPa 0,0 l/m 2,6 km/h (1 Bft) W-SW 254 0 min 0,000 mm 0,0 UV-I 45 W/m -0,4 C 2,7 C 8,0 km/h (2 Bft)
15.10.2015 12:00 2,7 C 80 % 1015,8 hPa 0,0 l/m 2,3 km/h (1 Bft) W-SW 250 0 min 0,000 mm 0,4 UV-I 59 W/m -0,4 C 2,7 C 6,4 km/h (2 Bft)
15.10.2015 12:05 2,8 C 80 % 1015,7 hPa 0,2 l/m 1,7 km/h (1 Bft) W 280 0 min 0,025 mm 0,6 UV-I 71 W/m -0,3 C 2,8 C 4,8 km/h (1 Bft)
15.10.2015 12:10 2,9 C 80 % 1015,7 hPa 0,0 l/m 0,8 km/h (0 Bft) W 272 0 min 0,000 mm 0,6 UV-I 86 W/m -0,2 C 2,9 C 6,4 km/h (2 Bft)
15.10.2015 12:15 3,1 C 80 % 1015,7 hPa 0,0 l/m 2,1 km/h (1 Bft) W 259 0 min 0,000 mm 0,8 UV-I 126 W/m -0,0 C 3,1 C 6,4 km/h (2 Bft)
15.10.2015 12:20 3,2 C 80 % 1015,7 hPa 0,2 l/m 1,3 km/h (1 Bft) W 267 0 min 0,000 mm 0,8 UV-I 123 W/m 0,1 C 3,2 C 6,4 km/h (2 Bft)
15.10.2015 12:25 3,3 C 80 % 1015,7 hPa 0,0 l/m 2,2 km/h (1 Bft) W 275 0 min 0,000 mm 0,7 UV-I 87 W/m 0,2 C 3,3 C 6,4 km/h (2 Bft)
15.10.2015 12:30 3,3 C 80 % 1015,6 hPa 0,0 l/m 3,5 km/h (1 Bft) W 260 0 min 0,000 mm 0,8 UV-I 109 W/m 0,2 C 3,3 C 9,7 km/h (2 Bft)
15.10.2015 12:35 3,3 C 80 % 1015,5 hPa 0,0 l/m 3,2 km/h (1 Bft) NW 313 0 min 0,000 mm 0,9 UV-I 111 W/m 0,2 C 3,3 C 6,4 km/h (2 Bft)
15.10.2015 12:40 3,5 C 80 % 1015,6 hPa 0,0 l/m 1,4 km/h (1 Bft) W 278 0 min 0,000 mm 0,7 UV-I 84 W/m 0,4 C 3,5 C 6,4 km/h (2 Bft)
15.10.2015 12:45 3,6 C 80 % 1015,6 hPa 0,0 l/m 1,3 km/h (1 Bft) SW 232 0 min 0,000 mm 0,6 UV-I 74 W/m 0,5 C 3,6 C 4,8 km/h (1 Bft)
15.10.2015 12:50 3,7 C 80 % 1015,7 hPa 0,0 l/m 1,6 km/h (1 Bft) W 273 0 min 0,000 mm 0,5 UV-I 63 W/m 0,6 C 3,7 C 9,7 km/h (2 Bft)
15.10.2015 12:55 3,7 C 80 % 1015,7 hPa 0,0 l/m 1,2 km/h (1 Bft) W 266 0 min 0,000 mm 0,1 UV-I 49 W/m 0,6 C 3,7 C 6,4 km/h (2 Bft)
15.10.2015 13:00 3,7 C 80 % 1015,7 hPa 0,0 l/m 0,9 km/h (0 Bft) W 264 0 min 0,000 mm 0,0 UV-I 45 W/m 0,6 C 3,7 C 4,8 km/h (1 Bft)
15.10.2015 13:05 3,8 C 80 % 1015,6 hPa 0,0 l/m 0,8 km/h (0 Bft) W-SW 244 0 min 0,026 mm 0,0 UV-I 46 W/m 0,7 C 3,8 C 6,4 km/h (2 Bft)
15.10.2015 13:10 3,8 C 80 % 1015,5 hPa 0,0 l/m 0,7 km/h (0 Bft) W 274 0 min 0,000 mm 0,0 UV-I 45 W/m 0,7 C 3,8 C 6,4 km/h (2 Bft)
15.10.2015 13:15 3,8 C 80 % 1015,5 hPa 0,0 l/m 0,1 km/h (0 Bft) W 266 0 min 0,000 mm 0,2 UV-I 55 W/m 0,7 C 3,8 C 3,2 km/h (1 Bft)
15.10.2015 13:20 3,9 C 80 % 1015,4 hPa 0,0 l/m 0,0 km/h (0 Bft) W 274 0 min 0,000 mm 0,6 UV-I 63 W/m 0,8 C 3,9 C 1,6 km/h (1 Bft)
15.10.2015 13:25 4,1 C 80 % 1015,3 hPa 0,0 l/m 0,2 km/h (0 Bft) W 281 0 min 0,000 mm 0,6 UV-I 67 W/m 1,0 C 4,1 C 3,2 km/h (1 Bft)
15.10.2015 13:30 4,2 C 80 % 1015,2 hPa 0,2 l/m 0,1 km/h (0 Bft) W 267 0 min 0,000 mm 0,6 UV-I 75 W/m 1,1 C 4,2 C 1,6 km/h (1 Bft)
15.10.2015 13:35 4,2 C 80 % 1015,2 hPa 0,0 l/m 0,2 km/h (0 Bft) W 275 0 min 0,000 mm 0,6 UV-I 81 W/m 1,1 C 4,2 C 4,8 km/h (1 Bft)
15.10.2015 13:40 4,1 C 80 % 1015,2 hPa 0,0 l/m 2,2 km/h (1 Bft) W-SW 249 0 min 0,000 mm 0,5 UV-I 67 W/m 1,0 C 4,1 C 6,4 km/h (2 Bft)
15.10.2015 13:45 4,1 C 80 % 1015,2 hPa 0,0 l/m 0,6 km/h (0 Bft) W 270 0 min 0,000 mm 0,5 UV-I 69 W/m 1,0 C 4,1 C 4,8 km/h (1 Bft)
15.10.2015 13:50 4,2 C 80 % 1015,1 hPa 0,0 l/m 1,9 km/h (1 Bft) SW 227 0 min 0,000 mm 0,6 UV-I 67 W/m 1,1 C 4,2 C 6,4 km/h (2 Bft)
15.10.2015 13:55 4,2 C 80 % 1015,1 hPa 0,0 l/m 0,7 km/h (0 Bft) W 277 0 min 0,000 mm 0,5 UV-I 61 W/m 1,1 C 4,2 C 4,8 km/h (1 Bft)
15.10.2015 14:00 4,2 C 80 % 1015,0 hPa 0,0 l/m 1,0 km/h (0 Bft) W-SW 250 0 min 0,000 mm 0,6 UV-I 66 W/m 1,1 C 4,2 C 6,4 km/h (2 Bft)
15.10.2015 14:05 4,3 C 80 % 1015,1 hPa 0,0 l/m 0,5 km/h (0 Bft) W-SW 252 0 min 0,025 mm 0,4 UV-I 57 W/m 1,2 C 4,3 C 6,4 km/h (2 Bft)
15.10.2015 14:10 4,3 C 79 % 1015,2 hPa 0,0 l/m 0,5 km/h (0 Bft) W-NW 284 0 min 0,000 mm 0,1 UV-I 50 W/m 1,0 C 4,3 C 4,8 km/h (1 Bft)
15.10.2015 14:15 4,4 C 79 % 1015,2 hPa 0,0 l/m 0,2 km/h (0 Bft) SW 236 0 min 0,000 mm 0,0 UV-I 40 W/m 1,1 C 4,4 C 3,2 km/h (1 Bft)
15.10.2015 14:20 4,4 C 79 % 1015,0 hPa 0,0 l/m 0,7 km/h (0 Bft) W-SW 240 0 min 0,000 mm 0,0 UV-I 43 W/m 1,1 C 4,4 C 4,8 km/h (1 Bft)
15.10.2015 14:25 4,4 C 79 % 1015,1 hPa 0,0 l/m 0,6 km/h (0 Bft) W 259 0 min 0,000 mm 0,0 UV-I 35 W/m 1,1 C 4,4 C 4,8 km/h (1 Bft)
15.10.2015 14:30 4,4 C 79 % 1015,2 hPa 0,0 l/m 0,9 km/h (0 Bft) SW 227 0 min 0,000 mm 0,0 UV-I 30 W/m 1,1 C 4,4 C 4,8 km/h (1 Bft)
15.10.2015 14:35 4,5 C 80 % 1015,2 hPa 0,0 l/m 0,8 km/h (0 Bft) W 259 0 min 0,000 mm 0,0 UV-I 28 W/m 1,4 C 4,5 C 4,8 km/h (1 Bft)
15.10.2015 14:40 4,5 C 80 % 1015,2 hPa 0,0 l/m 0,7 km/h (0 Bft) W 277 0 min 0,000 mm 0,0 UV-I 28 W/m 1,4 C 4,5 C 4,8 km/h (1 Bft)
15.10.2015 14:45 4,5 C 79 % 1015,3 hPa 0,0 l/m 0,6 km/h (0 Bft) W 272 0 min 0,000 mm 0,0 UV-I 26 W/m 1,2 C 4,5 C 4,8 km/h (1 Bft)
15.10.2015 14:50 4,5 C 79 % 1015,3 hPa 0,0 l/m 1,0 km/h (0 Bft) W 266 0 min 0,000 mm 0,0 UV-I 23 W/m 1,2 C 4,5 C 4,8 km/h (1 Bft)
15.10.2015 14:55 4,6 C 79 % 1015,2 hPa 0,0 l/m 0,3 km/h (0 Bft) W 280 0 min 0,000 mm 0,0 UV-I 24 W/m 1,3 C 4,6 C 4,8 km/h (1 Bft)
15.10.2015 15:00 4,6 C 79 % 1015,2 hPa 0,0 l/m 0,5 km/h (0 Bft) W 269 0 min 0,000 mm 0,0 UV-I 25 W/m 1,3 C 4,6 C 3,2 km/h (1 Bft)
15.10.2015 15:05 4,6 C 79 % 1015,1 hPa 0,0 l/m 0,3 km/h (0 Bft) W-SW 241 0 min 0,025 mm 0,0 UV-I 22 W/m 1,3 C 4,6 C 3,2 km/h (1 Bft)
15.10.2015 15:10 4,6 C 79 % 1015,1 hPa 0,0 l/m 0,5 km/h (0 Bft) SW 234 0 min 0,000 mm 0,0 UV-I 18 W/m 1,3 C 4,6 C 3,2 km/h (1 Bft)
15.10.2015 15:15 4,6 C 79 % 1015,1 hPa 0,0 l/m 0,5 km/h (0 Bft) W-SW 244 0 min 0,000 mm 0,0 UV-I 21 W/m 1,3 C 4,6 C 4,8 km/h (1 Bft)
15.10.2015 15:20 4,6 C 79 % 1015,1 hPa 0,0 l/m 0,0 km/h (0 Bft) W-SW 249 0 min 0,000 mm 0,0 UV-I 26 W/m 1,3 C 4,6 C 1,6 km/h (1 Bft)
15.10.2015 15:25 4,7 C 79 % 1015,1 hPa 0,0 l/m 0,3 km/h (0 Bft) W-SW 252 0 min 0,000 mm 0,0 UV-I 28 W/m 1,4 C 4,7 C 3,2 km/h (1 Bft)
15.10.2015 15:30 4,7 C 79 % 1015,1 hPa 0,0 l/m 0,4 km/h (0 Bft) W-SW 248 0 min 0,000 mm 0,0 UV-I 20 W/m 1,4 C 4,7 C 3,2 km/h (1 Bft)
15.10.2015 15:35 4,7 C 79 % 1015,1 hPa 0,0 l/m 0,8 km/h (0 Bft) SW 217 0 min 0,000 mm 0,0 UV-I 19 W/m 1,4 C 4,7 C 4,8 km/h (1 Bft)
15.10.2015 15:40 4,7 C 79 % 1015,2 hPa 0,0 l/m 0,7 km/h (0 Bft) SW 225 0 min 0,000 mm 0,0 UV-I 19 W/m 1,4 C 4,7 C 4,8 km/h (1 Bft)
15.10.2015 15:45 4,7 C 79 % 1015,2 hPa 0,0 l/m 1,0 km/h (0 Bft) W-SW 247 0 min 0,000 mm 0,0 UV-I 16 W/m 1,4 C 4,7 C 6,4 km/h (2 Bft)
15.10.2015 15:50 4,7 C 79 % 1015,2 hPa 0,0 l/m 0,8 km/h (0 Bft) SW 234 0 min 0,000 mm 0,0 UV-I 14 W/m 1,4 C 4,7 C 6,4 km/h (2 Bft)
15.10.2015 15:55 4,7 C 79 % 1015,2 hPa 0,0 l/m 0,6 km/h (0 Bft) W-SW 257 0 min 0,000 mm 0,0 UV-I 15 W/m 1,4 C 4,7 C 4,8 km/h (1 Bft)
15.10.2015 16:00 4,7 C 79 % 1015,3 hPa 0,0 l/m 0,1 km/h (0 Bft) W-SW 238 0 min 0,000 mm 0,0 UV-I 14 W/m 1,4 C 4,7 C 3,2 km/h (1 Bft)
15.10.2015 16:05 4,7 C 79 % 1015,2 hPa 0,0 l/m 0,3 km/h (0 Bft) W-SW 253 0 min 0,000 mm 0,0 UV-I 15 W/m 1,4 C 4,7 C 4,8 km/h (1 Bft)
15.10.2015 16:10 4,7 C 79 % 1015,3 hPa 0,0 l/m 0,3 km/h (0 Bft) W 268 0 min 0,000 mm 0,0 UV-I 15 W/m 1,4 C 4,7 C 3,2 km/h (1 Bft)
15.10.2015 16:15 4,7 C 79 % 1015,1 hPa 0,0 l/m 0,3 km/h (0 Bft) W-SW 257 0 min 0,000 mm 0,0 UV-I 16 W/m 1,4 C 4,7 C 3,2 km/h (1 Bft)
15.10.2015 16:20 4,7 C 79 % 1015,1 hPa 0,0 l/m 0,2 km/h (0 Bft) W-SW 245 0 min 0,000 mm 0,0 UV-I 14 W/m 1,4 C 4,7 C 3,2 km/h (1 Bft)
15.10.2015 16:25 4,7 C 79 % 1015,1 hPa 0,0 l/m 0,1 km/h (0 Bft) SW 221 0 min 0,000 mm 0,0 UV-I 10 W/m 1,4 C 4,7 C 3,2 km/h (1 Bft)
15.10.2015 16:30 4,7 C 79 % 1015,0 hPa 0,0 l/m 0,0 km/h (0 Bft) SW 221 0 min 0,000 mm 0,0 UV-I 10 W/m 1,4 C 4,7 C 0,0 km/h (0 Bft)
15.10.2015 16:35 4,7 C 79 % 1014,9 hPa 0,0 l/m 0,0 km/h (0 Bft) SW 234 0 min 0,000 mm 0,0 UV-I 9 W/m 1,4 C 4,7 C 1,6 km/h (1 Bft)
15.10.2015 16:40 4,7 C 79 % 1014,9 hPa 0,0 l/m 0,0 km/h (0 Bft) SW 234 0 min 0,000 mm 0,0 UV-I 15 W/m 1,4 C 4,7 C 0,0 km/h (0 Bft)
15.10.2015 16:45 4,7 C 79 % 1014,9 hPa 0,0 l/m 0,0 km/h (0 Bft) SW 234 0 min 0,000 mm 0,0 UV-I 24 W/m 1,4 C 4,7 C 0,0 km/h (0 Bft)
15.10.2015 16:50 4,8 C 79 % 1014,8 hPa 0,0 l/m 0,0 km/h (0 Bft) W-SW 242 0 min 0,000 mm 0,0 UV-I 28 W/m 1,5 C 4,8 C 0,0 km/h (0 Bft)
15.10.2015 16:55 4,8 C 79 % 1014,7 hPa 0,0 l/m 0,0 km/h (0 Bft) W-SW 245 0 min 0,000 mm 0,0 UV-I 29 W/m 1,5 C 4,8 C 0,0 km/h (0 Bft)
15.10.2015 17:00 4,8 C 79 % 1014,8 hPa 0,0 l/m 0,0 km/h (0 Bft) W-SW 245 0 min 0,000 mm 0,0 UV-I 25 W/m 1,5 C 4,8 C 0,0 km/h (0 Bft)
15.10.2015 17:05 4,9 C 79 % 1014,8 hPa 0,0 l/m 0,1 km/h (0 Bft) S-SW 213 0 min 0,000 mm 0,0 UV-I 25 W/m 1,6 C 4,9 C 3,2 km/h (1 Bft)
15.10.2015 17:10 4,9 C 79 % 1014,6 hPa 0,0 l/m 0,0 km/h (0 Bft) W-SW 249 0 min 0,000 mm 0,0 UV-I 27 W/m 1,6 C 4,9 C 0,0 km/h (0 Bft)
15.10.2015 17:15 4,9 C 79 % 1014,6 hPa 0,0 l/m 0,1 km/h (0 Bft) SW 222 0 min 0,000 mm 0,0 UV-I 29 W/m 1,6 C 4,9 C 3,2 km/h (1 Bft)
15.10.2015 17:20 5,0 C 79 % 1014,5 hPa 0,0 l/m 0,3 km/h (0 Bft) SW 223 0 min 0,000 mm 0,0 UV-I 36 W/m 1,7 C 5,0 C 4,8 km/h (1 Bft)
15.10.2015 17:25 5,0 C 79 % 1014,5 hPa 0,0 l/m 0,7 km/h (0 Bft) W-SW 246 0 min 0,000 mm 0,0 UV-I 38 W/m 1,7 C 5,0 C 3,2 km/h (1 Bft)
15.10.2015 17:30 5,1 C 79 % 1014,5 hPa 0,0 l/m 1,0 km/h (0 Bft) W-SW 254 0 min 0,000 mm 0,0 UV-I 27 W/m 1,8 C 5,1 C 6,4 km/h (2 Bft)
15.10.2015 17:35 5,0 C 79 % 1014,5 hPa 0,0 l/m 0,1 km/h (0 Bft) W-SW 241 0 min 0,000 mm 0,0 UV-I 26 W/m 1,7 C 5,0 C 3,2 km/h (1 Bft)
15.10.2015 17:40 5,1 C 79 % 1014,4 hPa 0,0 l/m 0,2 km/h (0 Bft) W-SW 253 0 min 0,000 mm 0,0 UV-I 24 W/m 1,8 C 5,1 C 3,2 km/h (1 Bft)
15.10.2015 17:45 5,1 C 79 % 1014,4 hPa 0,0 l/m 0,7 km/h (0 Bft) W 263 0 min 0,000 mm 0,0 UV-I 15 W/m 1,8 C 5,1 C 4,8 km/h (1 Bft)
15.10.2015 17:50 5,1 C 79 % 1014,5 hPa 0,0 l/m 0,4 km/h (0 Bft) SW 236 0 min 0,000 mm 0,0 UV-I 10 W/m 1,8 C 5,1 C 4,8 km/h (1 Bft)
15.10.2015 17:55 5,0 C 79 % 1014,5 hPa 0,0 l/m 0,4 km/h (0 Bft) W 278 0 min 0,000 mm 0,0 UV-I 5 W/m 1,7 C 5,0 C 4,8 km/h (1 Bft)
15.10.2015 18:00 5,0 C 79 % 1014,5 hPa 0,0 l/m 0,4 km/h (0 Bft) W-SW 247 0 min 0,000 mm 0,0 UV-I 0 W/m 1,7 C 5,0 C 4,8 km/h (1 Bft)
15.10.2015 18:05 5,0 C 79 % 1014,5 hPa 0,0 l/m 0,8 km/h (0 Bft) W-SW 254 0 min 0,000 mm 0,0 UV-I 0 W/m 1,7 C 5,0 C 4,8 km/h (1 Bft)
15.10.2015 18:10 5,0 C 79 % 1014,6 hPa 0,0 l/m 0,3 km/h (0 Bft) W 273 0 min 0,000 mm 0,0 UV-I 0 W/m 1,7 C 5,0 C 3,2 km/h (1 Bft)
15.10.2015 18:15 5,0 C 79 % 1014,5 hPa 0,0 l/m 0,4 km/h (0 Bft) SW 232 0 min 0,000 mm 0,0 UV-I 0 W/m 1,7 C 5,0 C 4,8 km/h (1 Bft)
15.10.2015 18:20 5,1 C 79 % 1014,5 hPa 0,0 l/m 0,8 km/h (0 Bft) W-SW 255 0 min 0,000 mm 0,0 UV-I 0 W/m 1,8 C 5,1 C 4,8 km/h (1 Bft)
15.10.2015 18:25 5,1 C 79 % 1014,6 hPa 0,0 l/m 0,7 km/h (0 Bft) W-NW 292 0 min 0,000 mm 0,0 UV-I 0 W/m 1,8 C 5,1 C 6,4 km/h (2 Bft)
15.10.2015 18:30 5,0 C 79 % 1014,6 hPa 0,0 l/m 0,0 km/h (0 Bft) W 271 0 min 0,000 mm 0,0 UV-I 0 W/m 1,7 C 5,0 C 0,0 km/h (0 Bft)
15.10.2015 18:35 5,0 C 79 % 1014,8 hPa 0,0 l/m 0,1 km/h (0 Bft) W 261 0 min 0,000 mm 0,0 UV-I 0 W/m 1,7 C 5,0 C 1,6 km/h (1 Bft)
15.10.2015 18:40 5,1 C 79 % 1014,8 hPa 0,0 l/m 0,0 km/h (0 Bft) W 261 0 min 0,000 mm 0,0 UV-I 0 W/m 1,8 C 5,1 C 0,0 km/h (0 Bft)
15.10.2015 18:45 5,0 C 79 % 1014,9 hPa 0,0 l/m 0,2 km/h (0 Bft) W-NW 289 0 min 0,000 mm 0,0 UV-I 0 W/m 1,7 C 5,0 C 4,8 km/h (1 Bft)
15.10.2015 18:50 5,0 C 79 % 1014,9 hPa 0,0 l/m 0,0 km/h (0 Bft) W 268 0 min 0,000 mm 0,0 UV-I 0 W/m 1,7 C 5,0 C 0,0 km/h (0 Bft)
15.10.2015 18:55 5,0 C 79 % 1014,9 hPa 0,0 l/m 0,0 km/h (0 Bft) SW 234 0 min 0,000 mm 0,0 UV-I 0 W/m 1,7 C 5,0 C 0,0 km/h (0 Bft)
15.10.2015 19:00 5,0 C 79 % 1015,1 hPa 0,0 l/m 0,2 km/h (0 Bft) W-SW 252 0 min 0,000 mm 0,0 UV-I 0 W/m 1,7 C 5,0 C 4,8 km/h (1 Bft)
15.10.2015 19:05 5,0 C 79 % 1015,1 hPa 0,0 l/m 0,3 km/h (0 Bft) W 265 0 min 0,000 mm 0,0 UV-I 0 W/m 1,7 C 5,0 C 4,8 km/h (1 Bft)
15.10.2015 19:10 5,0 C 79 % 1015,1 hPa 0,0 l/m 0,4 km/h (0 Bft) W 268 0 min 0,000 mm 0,0 UV-I 0 W/m 1,7 C 5,0 C 3,2 km/h (1 Bft)
15.10.2015 19:15 5,0 C 79 % 1015,1 hPa 0,0 l/m 0,1 km/h (0 Bft) W 273 0 min 0,000 mm 0,0 UV-I 0 W/m 1,7 C 5,0 C 4,8 km/h (1 Bft)
15.10.2015 19:20 4,9 C 79 % 1015,1 hPa 0,0 l/m 0,6 km/h (0 Bft) W 273 0 min 0,000 mm 0,0 UV-I 0 W/m 1,6 C 4,9 C 4,8 km/h (1 Bft)
15.10.2015 19:25 5,0 C 79 % 1015,2 hPa 0,0 l/m 0,0 km/h (0 Bft) SW 215 0 min 0,000 mm 0,0 UV-I 0 W/m 1,7 C 5,0 C 1,6 km/h (1 Bft)
15.10.2015 19:30 5,0 C 79 % 1015,2 hPa 0,2 l/m 0,0 km/h (0 Bft) W 280 0 min 0,000 mm 0,0 UV-I 0 W/m 1,7 C 5,0 C 0,0 km/h (0 Bft)
15.10.2015 19:35 5,1 C 79 % 1015,2 hPa 0,0 l/m 0,2 km/h (0 Bft) W 271 0 min 0,000 mm 0,0 UV-I 0 W/m 1,8 C 5,1 C 3,2 km/h (1 Bft)
15.10.2015 19:40 5,1 C 79 % 1015,4 hPa 0,2 l/m 0,5 km/h (0 Bft) W-SW 242 0 min 0,000 mm 0,0 UV-I 0 W/m 1,8 C 5,1 C 4,8 km/h (1 Bft)
15.10.2015 19:45 5,0 C 79 % 1015,4 hPa 0,0 l/m 0,0 km/h (0 Bft) SW 235 0 min 0,000 mm 0,0 UV-I 0 W/m 1,7 C 5,0 C 0,0 km/h (0 Bft)
15.10.2015 19:50 5,0 C 79 % 1015,5 hPa 0,0 l/m 0,0 km/h (0 Bft) W 281 0 min 0,000 mm 0,0 UV-I 0 W/m 1,7 C 5,0 C 1,6 km/h (1 Bft)
15.10.2015 19:55 5,0 C 79 % 1015,5 hPa 0,2 l/m 0,0 km/h (0 Bft) W 269 0 min 0,000 mm 0,0 UV-I 0 W/m 1,7 C 5,0 C 0,0 km/h (0 Bft)
15.10.2015 20:00 4,9 C 79 % 1015,5 hPa 0,0 l/m 0,0 km/h (0 Bft) W 269 0 min 0,000 mm 0,0 UV-I 0 W/m 1,6 C 4,9 C 1,6 km/h (1 Bft)
15.10.2015 20:05 4,9 C 79 % 1015,6 hPa 0,0 l/m 0,2 km/h (0 Bft) W 269 0 min 0,000 mm 0,0 UV-I 0 W/m 1,6 C 4,9 C 3,2 km/h (1 Bft)
15.10.2015 20:10 4,9 C 79 % 1015,6 hPa 0,2 l/m 0,1 km/h (0 Bft) W 269 0 min 0,000 mm 0,0 UV-I 0 W/m 1,6 C 4,9 C 3,2 km/h (1 Bft)
15.10.2015 20:15 4,9 C 79 % 1015,7 hPa 0,0 l/m 0,1 km/h (0 Bft) W 263 0 min 0,000 mm 0,0 UV-I 0 W/m 1,6 C 4,9 C 1,6 km/h (1 Bft)
15.10.2015 20:20 4,9 C 79 % 1015,8 hPa 0,0 l/m 0,0 km/h (0 Bft) W-NW 298 0 min 0,000 mm 0,0 UV-I 0 W/m 1,6 C 4,9 C 0,0 km/h (0 Bft)
15.10.2015 20:25 4,9 C 79 % 1015,8 hPa 0,0 l/m 0,0 km/h (0 Bft) W 273 0 min 0,000 mm 0,0 UV-I 0 W/m 1,6 C 4,9 C 1,6 km/h (1 Bft)
15.10.2015 20:30 4,9 C 79 % 1015,8 hPa 0,0 l/m 0,1 km/h (0 Bft) W 269 0 min 0,000 mm 0,0 UV-I 0 W/m 1,6 C 4,9 C 1,6 km/h (1 Bft)
15.10.2015 20:35 4,9 C 80 % 1015,7 hPa 0,2 l/m 0,3 km/h (0 Bft) W 267 0 min 0,000 mm 0,0 UV-I 0 W/m 1,7 C 4,9 C 3,2 km/h (1 Bft)
15.10.2015 20:40 4,9 C 80 % 1015,8 hPa 0,0 l/m 0,2 km/h (0 Bft) W 263 0 min 0,000 mm 0,0 UV-I 0 W/m 1,7 C 4,9 C 3,2 km/h (1 Bft)
15.10.2015 20:45 4,9 C 80 % 1015,8 hPa 0,2 l/m 0,3 km/h (0 Bft) W-SW 258 0 min 0,000 mm 0,0 UV-I 0 W/m 1,7 C 4,9 C 4,8 km/h (1 Bft)
15.10.2015 20:50 4,9 C 80 % 1015,8 hPa 0,0 l/m 0,0 km/h (0 Bft) W 273 0 min 0,000 mm 0,0 UV-I 0 W/m 1,7 C 4,9 C 1,6 km/h (1 Bft)
15.10.2015 20:55 4,9 C 80 % 1015,9 hPa 0,0 l/m 0,1 km/h (0 Bft) W-SW 257 0 min 0,000 mm 0,0 UV-I 0 W/m 1,7 C 4,9 C 1,6 km/h (1 Bft)
15.10.2015 21:00 4,9 C 80 % 1015,9 hPa 0,2 l/m 0,1 km/h (0 Bft) W 259 0 min 0,000 mm 0,0 UV-I 0 W/m 1,7 C 4,9 C 1,6 km/h (1 Bft)
15.10.2015 21:05 4,9 C 79 % 1015,9 hPa 0,0 l/m 0,2 km/h (0 Bft) W-SW 247 0 min 0,000 mm 0,0 UV-I 0 W/m 1,6 C 4,9 C 3,2 km/h (1 Bft)
15.10.2015 21:10 4,8 C 79 % 1016,0 hPa 0,2 l/m 0,0 km/h (0 Bft) W-SW 254 0 min 0,000 mm 0,0 UV-I 0 W/m 1,5 C 4,8 C 0,0 km/h (0 Bft)
15.10.2015 21:15 4,8 C 79 % 1016,0 hPa 0,0 l/m 0,1 km/h (0 Bft) W 263 0 min 0,000 mm 0,0 UV-I 0 W/m 1,5 C 4,8 C 1,6 km/h (1 Bft)
15.10.2015 21:20 4,8 C 79 % 1015,9 hPa 0,0 l/m 0,0 km/h (0 Bft) W 263 0 min 0,000 mm 0,0 UV-I 0 W/m 1,5 C 4,8 C 0,0 km/h (0 Bft)
15.10.2015 21:25 4,8 C 79 % 1016,0 hPa 0,2 l/m 0,0 km/h (0 Bft) W 265 0 min 0,000 mm 0,0 UV-I 0 W/m 1,5 C 4,8 C 1,6 km/h (1 Bft)
15.10.2015 21:30 4,8 C 80 % 1016,1 hPa 0,4 l/m 0,2 km/h (0 Bft) W-NW 284 0 min 0,000 mm 0,0 UV-I 0 W/m 1,6 C 4,8 C 3,2 km/h (1 Bft)
15.10.2015 21:35 4,8 C 80 % 1016,2 hPa 0,2 l/m 0,0 km/h (0 Bft) W-NW 284 0 min 0,000 mm 0,0 UV-I 0 W/m 1,6 C 4,8 C 0,0 km/h (0 Bft)
15.10.2015 21:40 4,8 C 80 % 1016,1 hPa 0,2 l/m 0,3 km/h (0 Bft) W-SW 255 0 min 0,000 mm 0,0 UV-I 0 W/m 1,6 C 4,8 C 3,2 km/h (1 Bft)
15.10.2015 21:45 4,8 C 80 % 1016,2 hPa 0,0 l/m 0,1 km/h (0 Bft) W 277 0 min 0,000 mm 0,0 UV-I 0 W/m 1,6 C 4,8 C 4,8 km/h (1 Bft)
15.10.2015 21:50 4,7 C 80 % 1016,2 hPa 0,2 l/m 0,8 km/h (0 Bft) W 280 0 min 0,000 mm 0,0 UV-I 0 W/m 1,6 C 4,7 C 6,4 km/h (2 Bft)
15.10.2015 21:55 4,7 C 80 % 1016,2 hPa 0,0 l/m 0,8 km/h (0 Bft) W-NW 300 0 min 0,000 mm 0,0 UV-I 0 W/m 1,6 C 4,7 C 6,4 km/h (2 Bft)
15.10.2015 22:00 4,7 C 80 % 1016,2 hPa 0,0 l/m 1,0 km/h (0 Bft) W-NW 283 0 min 0,000 mm 0,0 UV-I 0 W/m 1,6 C 4,7 C 4,8 km/h (1 Bft)
15.10.2015 22:05 4,7 C 80 % 1016,1 hPa 0,2 l/m 0,6 km/h (0 Bft) W-NW 290 0 min 0,000 mm 0,0 UV-I 0 W/m 1,6 C 4,7 C 4,8 km/h (1 Bft)
15.10.2015 22:10 4,7 C 79 % 1016,2 hPa 0,0 l/m 0,7 km/h (0 Bft) W-NW 296 0 min 0,000 mm 0,0 UV-I 0 W/m 1,4 C 4,7 C 8,0 km/h (2 Bft)
15.10.2015 22:15 4,7 C 79 % 1016,2 hPa 0,0 l/m 0,2 km/h (0 Bft) W 277 0 min 0,000 mm 0,0 UV-I 0 W/m 1,4 C 4,7 C 3,2 km/h (1 Bft)
15.10.2015 22:20 4,7 C 79 % 1016,1 hPa 0,0 l/m 1,1 km/h (1 Bft) W-NW 287 0 min 0,000 mm 0,0 UV-I 0 W/m 1,4 C 4,7 C 8,0 km/h (2 Bft)
15.10.2015 22:25 4,7 C 79 % 1016,0 hPa 0,0 l/m 0,1 km/h (0 Bft) W 281 0 min 0,000 mm 0,0 UV-I 0 W/m 1,4 C 4,7 C 1,6 km/h (1 Bft)
15.10.2015 22:30 4,7 C 79 % 1016,0 hPa 0,0 l/m 0,3 km/h (0 Bft) W 281 0 min 0,000 mm 0,0 UV-I 0 W/m 1,4 C 4,7 C 4,8 km/h (1 Bft)
15.10.2015 22:35 4,7 C 79 % 1015,9 hPa 0,2 l/m 0,0 km/h (0 Bft) W 281 0 min 0,000 mm 0,0 UV-I 0 W/m 1,4 C 4,7 C 1,6 km/h (1 Bft)
15.10.2015 22:40 4,7 C 79 % 1016,0 hPa 0,0 l/m 0,0 km/h (0 Bft) W-NW 288 0 min 0,000 mm 0,0 UV-I 0 W/m 1,4 C 4,7 C 0,0 km/h (0 Bft)
15.10.2015 22:45 4,7 C 79 % 1016,0 hPa 0,0 l/m 0,0 km/h (0 Bft) W 280 0 min 0,000 mm 0,0 UV-I 0 W/m 1,4 C 4,7 C 0,0 km/h (0 Bft)
15.10.2015 22:50 4,7 C 79 % 1016,2 hPa 0,0 l/m 0,0 km/h (0 Bft) W 278 0 min 0,000 mm 0,0 UV-I 0 W/m 1,4 C 4,7 C 1,6 km/h (1 Bft)
15.10.2015 22:55 4,7 C 79 % 1016,2 hPa 0,0 l/m 0,0 km/h (0 Bft) W 279 0 min 0,000 mm 0,0 UV-I 0 W/m 1,4 C 4,7 C 1,6 km/h (1 Bft)
15.10.2015 23:00 4,7 C 79 % 1016,1 hPa 0,0 l/m 0,0 km/h (0 Bft) NW 304 0 min 0,000 mm 0,0 UV-I 0 W/m 1,4 C 4,7 C 1,6 km/h (1 Bft)
15.10.2015 23:05 4,7 C 79 % 1016,2 hPa 0,0 l/m 0,3 km/h (0 Bft) W-SW 248 0 min 0,000 mm 0,0 UV-I 0 W/m 1,4 C 4,7 C 4,8 km/h (1 Bft)
15.10.2015 23:10 4,7 C 79 % 1016,2 hPa 0,0 l/m 0,0 km/h (0 Bft) W 276 0 min 0,000 mm 0,0 UV-I 0 W/m 1,4 C 4,7 C 0,0 km/h (0 Bft)
15.10.2015 23:15 4,8 C 79 % 1016,3 hPa 0,0 l/m 0,0 km/h (0 Bft) W-NW 285 0 min 0,000 mm 0,0 UV-I 0 W/m 1,5 C 4,8 C 1,6 km/h (1 Bft)
15.10.2015 23:20 4,8 C 79 % 1016,4 hPa 0,0 l/m 0,0 km/h (0 Bft) W-NW 285 0 min 0,000 mm 0,0 UV-I 0 W/m 1,5 C 4,8 C 0,0 km/h (0 Bft)
15.10.2015 23:25 4,8 C 79 % 1016,4 hPa 0,0 l/m 0,0 km/h (0 Bft) W-NW 285 0 min 0,000 mm 0,0 UV-I 0 W/m 1,5 C 4,8 C 0,0 km/h (0 Bft)
15.10.2015 23:30 4,8 C 79 % 1016,4 hPa 0,0 l/m 0,0 km/h (0 Bft) W-NW 285 0 min 0,000 mm 0,0 UV-I 0 W/m 1,5 C 4,8 C 0,0 km/h (0 Bft)
15.10.2015 23:35 4,8 C 79 % 1016,5 hPa 0,0 l/m 0,0 km/h (0 Bft) W-NW 285 0 min 0,000 mm 0,0 UV-I 0 W/m 1,5 C 4,8 C 0,0 km/h (0 Bft)
15.10.2015 23:40 4,8 C 79 % 1016,5 hPa 0,0 l/m 0,0 km/h (0 Bft) W-NW 285 0 min 0,000 mm 0,0 UV-I 0 W/m 1,5 C 4,8 C 0,0 km/h (0 Bft)
15.10.2015 23:45 4,8 C 79 % 1016,5 hPa 0,0 l/m 0,0 km/h (0 Bft) W-NW 285 0 min 0,000 mm 0,0 UV-I 0 W/m 1,5 C 4,8 C 0,0 km/h (0 Bft)
15.10.2015 23:50 4,8 C 79 % 1016,5 hPa 0,2 l/m 0,0 km/h (0 Bft) W-NW 285 0 min 0,000 mm 0,0 UV-I 0 W/m 1,5 C 4,8 C 0,0 km/h (0 Bft)
15.10.2015 23:55 4,8 C 79 % 1016,5 hPa 0,0 l/m 0,0 km/h (0 Bft) W-NW 285 0 min 0,000 mm 0,0 UV-I 0 W/m 1,5 C 4,8 C 0,0 km/h (0 Bft)
_ Min-Zeit 09:30 00:00 17:40 - 01:20 - - - - - - 08:55 09:30 01:20
Minimum _ 1,7 C 78 % 1014,4 hPa - 0,0 km/h (0 Bft) - - - - - - -1,6 C 1,7 C 0,0 km/h (0 Bft)
_ Max-Zeit 17:30 11:00 00:35 21:30 12:30 - - 00:00 11:00 12:35 12:15 17:30 17:30 01:00
Maximum _ 5,1 C 80 % 1018,8 hPa 0,4 l/m 3,5 km/h
W (1 Bft)
- - 0 min 0,026 mm 0,9 UV-I 126 W/m 1,8 C 5,1 C 12,9 km/h
O-NO (3 Bft)
Durchschnitt _ 3,6 C 79 % 1016,4 hPa #9,6 l/m 0,5 km/h (0 Bft) W - #0 min. #0,152 mm 0,6 UV-I 35 W/m 0,3 C 3,6 C 3,4 km/h (1 Bft)